Location: Bittkow
(50.3000°N, 19.0000°E)
Time: 22:04:52
(UTC+00:00)

ADEOS II - Pass Details

Date: 19 September 2020
Orbit: 799 x 801 km, 98.5° (Epoch: 20 October)

Event Time Altitude Azimuth Distance (km) Brightness Sun altitude
Rises 01:30:44 0° 13° (NNE) 3,321 6.1 -26.6°
Reaches altitude 10° 01:33:04 10° 11° (NNE) 2,386 5.2 -26.3°
Maximum altitude 01:38:19 72° 289° (WNW) 843 2.0 -25.6°
Enters shadow 01:38:27 72° 275° (W) 845 2.0 -25.6°
